Location: Dal�� Lhota
(48.7500°N, 14.0167°E)
Time: 07:38:10
(UTC+00:00)

Courier 1B Rocket - Pass Details

Date: 29 July 2021
Orbit: 920 x 1202 km, 28.3° (Epoch: 27 September)

Event Time Altitude Azimuth Distance (km) Brightness Sun altitude
Rises 04:20:06 0° 232° (SW) 3,574 7.3 6.0°
Reaches altitude 10° 04:26:21 10° 186° (S) 2,603 7.0 7.0°
Maximum altitude 04:26:28 10° 185° (S) 2,602 7.0 7.0°
Drops below altitude 10° 04:26:38 10° 183° (S) 2,603 7.0 7.0°
Sets 04:32:49 0° 138° (SE) 3,558 8.3 8.0°
